Fort Smith, AR

9:13 AM CDT on September 29, 2016 (GMT -0500)
Fort Smith Regional

Weather History for KFSM - March, 2013

Change the Weather History Date:

Monday, March 4, 2013

  Actual Average Record
Temperature  
Mean Temperature 57 °F 49 °F  
Max Temperature 72 °F 61 °F 84 °F (1938)
Min Temperature 42 °F 38 °F 11 °F (2002)
Degree Days  
Heating Degree Days 8 16  
Month to date heating degree days 79 65  
Since 1 July heating degree days 2402 2738  
Cooling Degree Days 0 0  
Month to date cooling degree days 0 0  
Year to date cooling degree days 1 1  
Growing Degree Days 7 (Base 50)    
Moisture  
Dew Point 42 °F    
Average Humidity 62    
Maximum Humidity 83    
Minimum Humidity 40    
Precipitation  
Precipitation 0.00 in 0.12 in 1.85 in (1989)
Month to date precipitation 0.00 0.44  
Year to date precipitation 8.43 6.01  
Sea Level Pressure  
Sea Level Pressure 29.70 in    
Wind  
Wind Speed 8 mph (NE)    
Max Wind Speed 15 mph    
Max Gust Speed -    
Visibility 10 miles    
Events      
T = Trace of Precipitation, MM = Missing Value Source: NWS Daily Summary

Daily Weather History Graph

Daily Weather History Graph

Search for Another Location

Airport or City:

Trip Planner

Search our weather history database for the weather conditions in past years. The results will help you decide how hot, cold, wet, or windy it might be!

Date:

Astronomy

Mar. 04, 2013 Rise Set
Actual Time 6:42 AM CST 6:15 PM CST
Civil Twilight 6:17 AM CST 6:41 PM CST
Nautical Twilight 5:47 AM CST 7:10 PM CST
Astronomical Twilight 5:18 AM CST 7:40 PM CST
Moon 12:44 AM CST (3/4) 11:07 AM CST (3/4)
Length of Visible Light 12h 23m
Length of Day
11h 33m
Waning Gibbous, 52% of the Moon is Illuminated
Mar 4
Waning Gibbous
Mar 4
Last Quarter
Mar 11
New
Mar 19
First Quarter
Mar 27
Full

Hourly Weather History & Observations

Time (CST) Temp. Windchill Dew Point Humidity Pressure Visibility Wind Dir Wind Speed Gust Speed Precip Events Conditions
12:53 AM 45.0 °F 40.6 °F 30.9 °F 58% 29.81 in 10.0 mi ENE 8.1 mph - N/A   Clear
1:53 AM 44.1 °F 38.1 °F 32.0 °F 63% 29.79 in 10.0 mi ENE 11.5 mph - N/A   Clear
2:53 AM 43.0 °F 37.2 °F 32.0 °F 65% 29.75 in 10.0 mi East 10.4 mph - N/A   Clear
3:53 AM 43.0 °F 37.7 °F 32.0 °F 65% 29.73 in 10.0 mi NE 9.2 mph - N/A   Clear
4:53 AM 44.1 °F 40.1 °F 32.0 °F 63% 29.73 in 10.0 mi NE 6.9 mph - N/A   Clear
5:53 AM 43.0 °F 38.8 °F 33.1 °F 68% 29.72 in 10.0 mi ENE 6.9 mph - N/A   Clear
6:53 AM 42.1 °F 37.7 °F 34.0 °F 73% 29.71 in 10.0 mi NNE 6.9 mph - N/A   Clear
7:53 AM 45.0 °F 41.8 °F 35.1 °F 68% 29.72 in 10.0 mi ENE 5.8 mph - N/A   Clear
8:53 AM 50.0 °F - 37.0 °F 61% 29.70 in 10.0 mi NNE 6.9 mph - N/A   Clear
9:53 AM 57.0 °F - 41.0 °F 55% 29.69 in 10.0 mi NNE 6.9 mph - N/A   Clear
10:53 AM 64.0 °F - 45.0 °F 50% 29.68 in 10.0 mi South 9.2 mph - N/A   Clear
11:53 AM 64.9 °F - 46.0 °F 50% 29.66 in 10.0 mi South 5.8 mph - N/A   Clear
12:53 PM 66.0 °F - 45.0 °F 47% 29.63 in 10.0 mi Variable 4.6 mph - N/A   Scattered Clouds
1:53 PM 69.1 °F - 45.0 °F 42% 29.61 in 10.0 mi WSW 15.0 mph - N/A   Partly Cloudy
2:53 PM 70.0 °F - 46.0 °F 42% 29.61 in 10.0 mi South 10.4 mph - N/A   Partly Cloudy
3:53 PM 71.1 °F - 46.9 °F 42% 29.61 in 10.0 mi ESE 3.5 mph - N/A   Partly Cloudy
4:53 PM 66.9 °F - 48.9 °F 52% 29.62 in 10.0 mi NE 10.4 mph - N/A   Clear
5:53 PM 63.0 °F - 48.9 °F 60% 29.63 in 10.0 mi ENE 13.8 mph - N/A   Clear
6:53 PM 59.0 °F - 48.9 °F 69% 29.66 in 10.0 mi ENE 10.4 mph - N/A   Clear
7:53 PM 55.0 °F - 48.0 °F 77% 29.68 in 10.0 mi ENE 4.6 mph - N/A   Clear
8:53 PM 53.1 °F - 46.9 °F 80% 29.70 in 10.0 mi Calm Calm - N/A   Clear
9:53 PM 54.0 °F - 48.0 °F 80% 29.72 in 10.0 mi Calm Calm - N/A   Clear
10:53 PM 52.0 °F - 46.9 °F 83% 29.73 in 10.0 mi North 4.6 mph - N/A   Clear
11:33 PM 57.2 °F - 48.2 °F 72% 29.77 in 10.0 mi NNW 8.1 mph - N/A   Scattered Clouds
11:53 PM 55.9 °F - 46.9 °F 72% 29.80 in 10.0 mi NW 15.0 mph - N/A   Partly Cloudy